Location: Middle Street
(51.7167°N, 0.0333°E)
Time: 02:28:01
(UTC+00:00)

NOAA 12 - Pass Details

Date: 20 January 2021
Orbit: 796 x 814 km, 98.5° (Epoch: 28 February)

Event Time Altitude Azimuth Distance (km) Brightness Sun altitude
Rises 16:57:24 0° 157° (SSE) 3,290 7.3 -4.8°
Reaches altitude 10° 16:59:43 10° 156° (SSE) 2,364 6.6 -5.1°
Maximum altitude 17:04:56 75° 72° (ENE) 831 4.1 -5.9°
Drops below altitude 10° 17:10:11 10° 348° (NNW) 2,383 6.4 -6.6°
Sets 17:12:31 0° 347° (NNW) 3,319 7.2 -6.9°
